Weather History for Rawlins, WY

Change the Weather History Date:

Monday, November 7, 2011

  Actual Average Record
Temperature  
Mean Temperature 25 °F 34 °F  
Max Temperature 37 °F 45 °F 68 °F (1999)
Min Temperature 12 °F 23 °F -9 °F (1990)
Degree Days  
Heating Degree Days 40 31  
Month to date heating degree days 267 205  
Since 1 July heating degree days 1076 1264  
Cooling Degree Days 0 0  
Month to date cooling degree days 0 0  
Year to date cooling degree days 242 186  
Moisture  
Dew Point 15 °F    
Average Humidity 70    
Maximum Humidity 88    
Minimum Humidity 52    
Precipitation  
Precipitation 0.00 in 0.02 in 0.25 in (1966)
Month to date precipitation 0.73 0.15  
Year to date precipitation 9.09 8.42  
Sea Level Pressure  
Sea Level Pressure 30.13 in    
Wind  
Wind Speed 3 mph (North)    
Max Wind Speed 16 mph    
Max Gust Speed 32 mph    
Visibility 10 miles    
Events      
T = Trace of Precipitation, MM = Missing Value Source: NWS Daily Summary

Daily Weather History Graph

Daily Weather History Graph

Search for Another Location

Airport:

Trip Planner

Search our weather history database for the weather conditions in past years. The results will help you decide how hot, cold, wet, or windy it might be!

Date:

Astronomy

Nov. 07, 2011 Rise Set
Actual Time 6:48 AM MST 4:56 PM MST
Civil Twilight 6:18 AM MST 5:25 PM MST
Nautical Twilight 5:45 AM MST 5:58 PM MST
Astronomical Twilight 5:13 AM MST 6:31 PM MST
Moon 3:10 PM MST (11/7) 3:51 AM MST (11/7)
Length of Visible Light 11h 06m
Length of Day
10h 08m
Waxing Gibbous, 92% of the Moon is Illuminated
Nov 7
Waxing Gibbous
Nov 10
Full
Nov 18
Last Quarter
Nov 24
New
Dec 2
First Quarter

Hourly Weather History & Observations

Time (MST) Temp. Windchill Dew Point Humidity Pressure Visibility Wind Dir Wind Speed Gust Speed Precip Events Conditions
12:53 AM 18.0 °F - 12.9 °F 81% 30.09 in 10.0 mi Calm Calm - N/A   Clear
1:53 AM 19.9 °F - 12.9 °F 74% 30.08 in 10.0 mi Calm Calm - N/A   Clear
2:53 AM 14.0 °F - 9.0 °F 80% 30.12 in 10.0 mi Calm Calm - N/A   Clear
3:53 AM 12.0 °F - 8.1 °F 84% 30.13 in 10.0 mi Calm Calm - N/A   Clear
4:53 AM 16.0 °F 8.8 °F 10.9 °F 81% 30.12 in 10.0 mi Variable 4.6 mph - N/A   Overcast
5:53 AM 19.0 °F 12.3 °F 14.0 °F 81% 30.13 in 10.0 mi North 4.6 mph - N/A   Overcast
6:53 AM 21.0 °F - 17.1 °F 85% 30.14 in 10.0 mi Calm Calm - N/A   Overcast
7:53 AM 21.9 °F - 17.1 °F 82% 30.15 in 10.0 mi Calm Calm - N/A   Overcast
8:53 AM 24.1 °F - 17.1 °F 75% 30.15 in 10.0 mi Calm Calm - N/A   Overcast
9:53 AM 27.0 °F 21.6 °F 18.0 °F 69% 30.13 in 10.0 mi SE 4.6 mph - N/A   Overcast
10:53 AM 30.9 °F 27.5 °F 19.0 °F 61% 30.11 in 10.0 mi East 3.5 mph - N/A   Overcast
11:53 AM 33.1 °F - 21.0 °F 61% 30.08 in 10.0 mi Calm Calm - N/A   Overcast
12:53 PM 35.1 °F 32.2 °F 19.9 °F 54% 30.05 in 10.0 mi East 3.5 mph - N/A   Overcast
2:53 PM 33.1 °F 26.9 °F 21.0 °F 61% 30.08 in 10.0 mi NNW 6.9 mph - N/A   Mostly Cloudy
4:53 PM 26.1 °F 17.6 °F 19.9 °F 78% 30.14 in 10.0 mi North 8.1 mph - N/A   Partly Cloudy
5:53 PM 23.0 °F 14.7 °F 17.1 °F 78% 30.16 in 10.0 mi NNW 6.9 mph - N/A   Clear
7:53 PM 18.0 °F 8.7 °F 14.0 °F 84% 30.20 in 10.0 mi NNW 6.9 mph - N/A   Clear
8:53 PM 17.1 °F 8.7 °F 12.9 °F 84% 30.19 in 10.0 mi NNW 5.8 mph - N/A   Clear
9:53 PM 16.0 °F 10.4 °F 12.0 °F 84% 30.18 in 10.0 mi NNW 3.5 mph - N/A   Clear
10:53 PM 15.1 °F - 10.9 °F 84% 30.16 in 10.0 mi Calm Calm - N/A   Clear
11:53 PM 14.0 °F - 10.0 °F 84% 30.15 in 10.0 mi Calm Calm - N/A   Clear